Weather History for Harlan, KY

Change the Weather History Date:

Sunday, October 14, 2012

  Actual Average (KLOZ) Record (KLOZ)
Temperature  
Mean Temperature 62 °F 58 °F  
Max Temperature 71 °F 70 °F 83 °F (1962)
Min Temperature 53 °F 46 °F 25 °F (1988)
Degree Days  
Heating Degree Days 3 8  
Month to date heating degree days 86  
Since 1 July heating degree days 133  
Cooling Degree Days 0 1  
Month to date cooling degree days 16  
Year to date cooling degree days 1183  
Growing Degree Days 12 (Base 50)    
Moisture  
Dew Point 52 °F    
Average Humidity 66    
Maximum Humidity 77    
Minimum Humidity 53    
Precipitation  
Precipitation 0.00 in 0.10 in 2.04 in (1970)
Month to date precipitation 1.33  
Year to date precipitation 37.38  
Sea Level Pressure  
Sea Level Pressure 30.09 in    
Wind  
Wind Speed 3 mph ()    
Max Wind Speed 12 mph    
Max Gust Speed 26 mph    
Visibility 10.0 miles    
Events      
T = Trace of Precipitation, MM = Missing Value Source: Averaged Metar Reports

Daily Weather History Graph

Daily Weather History Graph

Search for Another Location

Airport:

Trip Planner

Search our weather history database for the weather conditions in past years. The results will help you decide how hot, cold, wet, or windy it might be!

Date:

Astronomy

Oct. 14, 2012 Rise Set
Actual Time 7:40 AM EDT 6:57 PM EDT
Civil Twilight 7:14 AM EDT 7:23 PM EDT
Nautical Twilight 6:44 AM EDT 7:53 PM EDT
Astronomical Twilight 6:14 AM EDT 8:23 PM EDT
Moon 6:38 AM EDT (10/14) 6:17 PM EDT (10/14)
Length of Visible Light 12h 09m
Length of Day
11h 17m
Waning Crescent, 1% of the Moon is Illuminated
Oct 14
Waning Crescent
Oct 15
New
Oct 21
First Quarter
Oct 29
Full
Nov 6
Last Quarter

Hourly Weather History & Observations

Time (EDT) Temp. Dew Point Humidity Pressure Visibility Wind Dir Wind Speed Gust Speed Precip Events Conditions
12:15 AM 60.8 °F 48.2 °F 63% 30.21 in 10.0 mi Calm Calm - N/A   Clear
12:35 AM 60.8 °F 46.4 °F 59% 30.21 in 10.0 mi Calm Calm - N/A   Clear
12:55 AM 59.0 °F 48.2 °F 67% 30.21 in 10.0 mi Calm Calm - N/A   Clear
1:15 AM 60.8 °F 46.4 °F 59% 30.19 in 10.0 mi Calm Calm - N/A   Clear
1:35 AM 59.0 °F 46.4 °F 63% 30.20 in 10.0 mi Calm Calm - N/A   Clear
1:55 AM 59.0 °F 46.4 °F 63% 30.20 in 10.0 mi Calm Calm - N/A   Clear
2:15 AM 59.0 °F 46.4 °F 63% 30.19 in 10.0 mi Calm Calm - N/A   Clear
2:35 AM 59.0 °F 46.4 °F 63% 30.19 in 10.0 mi SSE 3.5 mph - N/A   Clear
2:55 AM 57.2 °F 46.4 °F 67% 30.18 in 10.0 mi Calm Calm - N/A   Clear
3:35 AM 57.2 °F 46.4 °F 67% 30.17 in 10.0 mi SE 3.5 mph - N/A   Clear
3:55 AM 55.4 °F 46.4 °F 72% 30.16 in 10.0 mi SE 4.6 mph - N/A   Clear
4:15 AM 55.4 °F 46.4 °F 72% 30.16 in 10.0 mi SSE 5.8 mph - N/A   Clear
4:35 AM 55.4 °F 46.4 °F 72% 30.16 in 10.0 mi East 6.9 mph - N/A   Clear
4:55 AM 55.4 °F 46.4 °F 72% 30.16 in 10.0 mi East 8.1 mph - N/A   Clear
5:15 AM 55.4 °F 46.4 °F 72% 30.16 in 10.0 mi East 6.9 mph - N/A   Clear
5:35 AM 55.4 °F 46.4 °F 72% 30.17 in 10.0 mi East 8.1 mph - N/A   Clear
5:55 AM 53.6 °F 46.4 °F 77% 30.17 in 10.0 mi East 8.1 mph - N/A   Scattered Clouds
6:15 AM 53.6 °F 46.4 °F 77% 30.17 in 10.0 mi East 9.2 mph - N/A   Scattered Clouds
6:35 AM 55.4 °F 46.4 °F 72% 30.17 in 10.0 mi East 5.8 mph - N/A   Clear
6:55 AM 53.6 °F 46.4 °F 77% 30.17 in 10.0 mi East 6.9 mph - N/A   Clear
7:15 AM 53.6 °F 46.4 °F 77% 30.17 in 10.0 mi East 8.1 mph - N/A   Clear
7:35 AM 53.6 °F 46.4 °F 77% 30.17 in 10.0 mi East 6.9 mph - N/A   Clear
7:55 AM 53.6 °F 46.4 °F 77% 30.18 in 10.0 mi East 6.9 mph - N/A   Clear
8:15 AM 55.4 °F 46.4 °F 72% 30.18 in 10.0 mi Calm Calm - N/A   Clear
8:35 AM 55.4 °F 46.4 °F 72% 30.18 in 10.0 mi NE 3.5 mph - N/A   Scattered Clouds
8:55 AM 57.2 °F 46.4 °F 67% 30.18 in 10.0 mi East 6.9 mph - N/A   Mostly Cloudy
9:15 AM 59.0 °F 48.2 °F 67% 30.18 in 10.0 mi East 4.6 mph - N/A   Overcast
9:35 AM 59.0 °F 48.2 °F 67% 30.17 in 10.0 mi East 6.9 mph - N/A   Scattered Clouds
9:55 AM 60.8 °F 48.2 °F 63% 30.18 in 10.0 mi Calm Calm - N/A   Clear
10:15 AM 59.0 °F 50.0 °F 72% 30.18 in 10.0 mi Calm Calm - N/A   Clear
10:35 AM 60.8 °F 50.0 °F 68% 30.18 in 10.0 mi Calm Calm - N/A   Scattered Clouds
10:55 AM 62.6 °F 50.0 °F 63% 30.18 in 10.0 mi Calm Calm - N/A   Overcast
11:15 AM 62.6 °F 51.8 °F 68% 30.17 in 10.0 mi Calm Calm - N/A   Overcast
11:35 AM 62.6 °F 51.8 °F 68% 30.17 in 10.0 mi Calm Calm - N/A   Overcast
11:55 AM 64.4 °F 51.8 °F 64% 30.16 in 10.0 mi Calm Calm - N/A   Overcast
12:15 PM 66.2 °F 51.8 °F 60% 30.15 in 10.0 mi Calm Calm - N/A   Overcast
12:35 PM 68.0 °F 53.6 °F 60% 30.15 in 10.0 mi SW 8.1 mph - N/A   Overcast
12:55 PM 68.0 °F 53.6 °F 60% 30.13 in 10.0 mi SW 8.1 mph - N/A   Overcast
1:15 PM 71.6 °F 53.6 °F 53% 30.13 in 10.0 mi South 4.6 mph 18.4 mph N/A   Overcast
1:35 PM 69.8 °F 53.6 °F 56% 30.12 in 10.0 mi SW 11.5 mph 26.5 mph N/A   Overcast
1:55 PM 69.8 °F 53.6 °F 56% 30.11 in 10.0 mi South 3.5 mph 9.2 mph N/A   Overcast
2:15 PM 71.6 °F 53.6 °F 53% 30.10 in 10.0 mi SSW 6.9 mph - N/A   Overcast
2:35 PM 69.8 °F 53.6 °F 56% 30.08 in 10.0 mi SSW 4.6 mph 20.7 mph N/A   Overcast
2:55 PM 69.8 °F 55.4 °F 60% 30.06 in 10.0 mi SW 4.6 mph - N/A   Mostly Cloudy
3:15 PM 69.8 °F 55.4 °F 60% 30.04 in 10.0 mi South 5.8 mph - N/A   Mostly Cloudy
3:35 PM 69.8 °F 55.4 °F 60% 30.04 in 10.0 mi South 8.1 mph - N/A   Scattered Clouds
3:55 PM 69.8 °F 55.4 °F 60% 30.03 in 10.0 mi SSW 5.8 mph - N/A   Scattered Clouds
4:15 PM 69.8 °F 55.4 °F 60% 30.01 in 10.0 mi SSW 9.2 mph - N/A   Scattered Clouds
4:35 PM 69.8 °F 55.4 °F 60% 30.00 in 10.0 mi South 6.9 mph - N/A   Scattered Clouds
4:55 PM 69.8 °F 55.4 °F 60% 30.01 in 10.0 mi South 5.8 mph - N/A   Scattered Clouds
5:15 PM 69.8 °F 55.4 °F 60% 29.99 in 10.0 mi SSE 6.9 mph - N/A   Mostly Cloudy
5:35 PM 68.0 °F 55.4 °F 64% 29.98 in 10.0 mi SSE 4.6 mph - N/A   Overcast
5:55 PM 68.0 °F 55.4 °F 64% 29.99 in 10.0 mi South 4.6 mph - N/A   Overcast
6:15 PM 68.0 °F 55.4 °F 64% 29.98 in 10.0 mi Calm Calm - N/A   Overcast
6:35 PM 69.8 °F 55.4 °F 60% 29.97 in 10.0 mi SSW 6.9 mph - N/A   Overcast
6:55 PM 68.0 °F 55.4 °F 64% 29.97 in 10.0 mi SSW 4.6 mph - N/A   Overcast
7:15 PM 69.8 °F 55.4 °F 60% 29.97 in 10.0 mi SSE 5.8 mph - N/A   Overcast
7:35 PM 69.8 °F 55.4 °F 60% 29.96 in 10.0 mi South 5.8 mph 16.1 mph N/A   Overcast
7:55 PM 68.0 °F 55.4 °F 64% 29.96 in 10.0 mi SW 3.5 mph - N/A   Overcast
8:15 PM 69.8 °F 55.4 °F 60% 29.96 in 10.0 mi SSW 5.8 mph - N/A   Overcast
8:35 PM 68.0 °F 57.2 °F 68% 29.96 in 10.0 mi SSW 3.5 mph - N/A   Overcast
8:55 PM 68.0 °F 57.2 °F 68% 29.96 in 10.0 mi South 6.9 mph - N/A   Overcast
9:15 PM 68.0 °F 57.2 °F 68% 29.96 in 10.0 mi WSW 5.8 mph - N/A   Overcast
9:35 PM 68.0 °F 57.2 °F 68% 29.96 in 10.0 mi WSW 5.8 mph - N/A   Overcast
9:55 PM 68.0 °F 57.2 °F 68% 29.95 in 10.0 mi Calm Calm - N/A   Overcast
10:15 PM 68.0 °F 57.2 °F 68% 29.95 in 10.0 mi ENE 3.5 mph - N/A   Overcast
10:35 PM 68.0 °F 57.2 °F 68% 29.94 in 10.0 mi SSW 9.2 mph - N/A   Overcast
10:55 PM 68.0 °F 57.2 °F 68% 29.95 in 10.0 mi Calm Calm - N/A   Overcast
11:15 PM 68.0 °F 57.2 °F 68% 29.94 in 10.0 mi South 6.9 mph - N/A   Overcast
11:35 PM 68.0 °F 57.2 °F 68% 29.94 in 10.0 mi SW 9.2 mph - N/A   Overcast
11:55 PM 68.0 °F 59.0 °F 73% 29.93 in 10.0 mi WNW 5.8 mph 21.9 mph N/A   Overcast